This is the latest recevied weather packets stored in our database for station/object FW0727. If no packets are shown the sender has not sent any weather packets the latest 10 day(s).
| Time | Temp. | Humidity | Pressure | Rain* | Wind** | Luminosity | Snow |
|---|---|---|---|---|---|---|---|
| 1777283192 | 12.78° C | 25% | 1023.3 hPa | - | - | - | - |
| 1777282512 | 12.78° C | 24% | 1023.5 hPa | - | - | - | - |
| 1777282168 | 13.33° C | 26% | 1023.6 hPa | - | - | - | - |
| 1777281487 | 12.22° C | 25% | 1023.8 hPa | - | - | - | - |
| 1777281134 | 12.78° C | 26% | 1023.9 hPa | - | - | - | - |
| 1777280781 | 12.22° C | 24% | 1024 hPa | - | - | - | - |
| 1777280428 | 12.78° C | 25% | 1024 hPa | - | - | - | - |
| 1777280077 | 12.78° C | 26% | 1024.1 hPa | - | - | - | - |
| 1777280076 | 12.78° C | 26% | 1024.1 hPa | - | - | - | - |
| 1777279724 | 12.78° C | 25% | 1024.2 hPa | - | - | - | - |
| 1777279371 | 11.67° C | 26% | 1024.4 hPa | - | - | - | - |
| 1777279018 | 11.67° C | 26% | 1024.4 hPa | - | - | - | - |
| 1777278674 | 12.78° C | 26% | 1024.4 hPa | - | - | - | - |
| 1777278322 | 12.22° C | 26% | 1024.5 hPa | - | - | - | - |
| 1777277969 | 12.22° C | 26% | 1024.6 hPa | - | - | - | - |
| 1777277617 | 12.22° C | 26% | 1024.6 hPa | - | - | - | - |
| 1777277265 | 11.67° C | 25% | 1024.6 hPa | - | - | - | - |
| 1777276912 | 11.11° C | 26% | 1024.6 hPa | - | - | - | - |
| 1777276560 | 11.67° C | 26% | 1024.6 hPa | - | - | - | - |
| 1777276207 | 11.11° C | 25% | 1024.6 hPa | - | - | - | - |
| 1777275855 | 11.67° C | 26% | 1024.6 hPa | - | - | - | - |
| 1777275503 | 10.56° C | 26% | 1024.6 hPa | - | - | - | - |
| 1777275150 | 11.11° C | 26% | 1024.6 hPa | - | - | - | - |
| 1777274797 | 11.11° C | 26% | 1024.7 hPa | - | - | - | - |
| 1777274114 | 10° C | 27% | 1024.8 hPa | - | - | - | - |
* Rain since midnight (hover to see other rain measurements)
** Current wind speed in m/s (hover to see current wind gust speed)